Weather History for New Philadelphia, OH

Change the Weather History Date:

Sunday, March 10, 2013

  Actual Average Record
Temperature  
Mean Temperature 57 °F 38 °F  
Max Temperature 71 °F 48 °F 73 °F (1974)
Min Temperature 43 °F 27 °F -3 °F (1984)
Degree Days  
Heating Degree Days 8 27  
Month to date heating degree days 298 289  
Since 1 July heating degree days 4428 4496  
Cooling Degree Days 0 0  
Month to date cooling degree days 0 0  
Year to date cooling degree days 0 0  
Growing Degree Days 8 (Base 50)    
Moisture  
Dew Point 32 °F    
Average Humidity 44    
Maximum Humidity 65    
Minimum Humidity 22    
Precipitation  
Precipitation 0.02 in 0.09 in 2.66 in (1964)
Month to date precipitation 0.20 0.88  
Year to date precipitation 3.36 5.84  
Sea Level Pressure  
Sea Level Pressure 30.04 in    
Wind  
Wind Speed 5 mph (SSE)    
Max Wind Speed 13 mph    
Max Gust Speed 20 mph    
Visibility 10 miles    
Events      
T = Trace of Precipitation, MM = Missing Value Source: NWS Daily Summary

Daily Weather History Graph

Daily Weather History Graph

Search for Another Location

Airport:

Trip Planner

Search our weather history database for the weather conditions in past years. The results will help you decide how hot, cold, wet, or windy it might be!

Date:

Astronomy

Mar. 10, 2013 Rise Set
Actual Time 7:44 AM EDT 7:27 PM EDT
Civil Twilight 7:17 AM EDT 7:54 PM EDT
Nautical Twilight 6:46 AM EDT 8:26 PM EDT
Astronomical Twilight 6:14 AM EDT 8:58 PM EDT
Moon 6:44 AM EDT (3/10) 6:33 PM EDT (3/10)
Length of Visible Light 12h 36m
Length of Day
11h 42m
Waning Crescent, 2% of the Moon is Illuminated
Mar 10
Waning Crescent
Mar 11
New
Mar 19
First Quarter
Mar 27
Full
Apr 3
Last Quarter

Hourly Weather History & Observations

Time (EDT) Temp. Windchill Dew Point Humidity Pressure Visibility Wind Dir Wind Speed Gust Speed Precip Events Conditions
12:53 AM 46.9 °F - 28.0 °F 48% 30.13 in 10.0 mi SE 5.8 mph - N/A   Overcast
1:53 AM 48.0 °F - 27.0 °F 44% 30.11 in 10.0 mi Calm Calm - N/A   Overcast
3:53 AM 48.0 °F - 27.0 °F 44% 30.11 in 10.0 mi Calm Calm - N/A   Scattered Clouds
4:53 AM 48.0 °F - 27.0 °F 44% 30.08 in 10.0 mi Calm Calm - N/A   Overcast
5:53 AM 46.9 °F - 28.0 °F 48% 30.09 in 10.0 mi SE 4.6 mph - N/A   Scattered Clouds
6:53 AM 48.9 °F - 27.0 °F 43% 30.11 in 10.0 mi Calm Calm - N/A   Mostly Cloudy
8:53 AM 44.1 °F 42.5 °F 37.0 °F 76% 30.14 in 10.0 mi SE 3.5 mph - 0.01 in   Overcast
9:53 AM 46.9 °F - 35.1 °F 63% 30.14 in 10.0 mi SE 6.9 mph - 0.01 in   Scattered Clouds
10:53 AM 52.0 °F - 34.0 °F 50% 30.14 in 10.0 mi SE 5.8 mph - N/A   Scattered Clouds
11:53 AM 59.0 °F - 33.1 °F 38% 30.11 in 10.0 mi South 6.9 mph - N/A   Partly Cloudy
12:53 PM 64.0 °F - 32.0 °F 30% 30.08 in 10.0 mi SSE 4.6 mph - N/A   Partly Cloudy
1:53 PM 64.9 °F - 30.9 °F 28% 30.05 in 10.0 mi SSW 5.8 mph - N/A   Clear
2:53 PM 69.1 °F - 33.1 °F 26% 30.01 in 10.0 mi South 8.1 mph - N/A   Clear
3:53 PM 69.1 °F - 32.0 °F 25% 29.99 in 10.0 mi South 12.7 mph 17.3 mph N/A   Clear
4:53 PM 71.1 °F - 30.9 °F 23% 29.99 in 10.0 mi SW 6.9 mph - N/A   Clear
5:53 PM 71.1 °F - 30.0 °F 22% 29.97 in 10.0 mi SE 4.6 mph - N/A   Clear
6:53 PM 69.1 °F - 30.9 °F 24% 29.97 in 10.0 mi South 6.9 mph - N/A   Clear
7:53 PM 62.1 °F - 34.0 °F 35% 29.97 in 10.0 mi SE 4.6 mph - N/A   Clear
8:53 PM 60.1 °F - 34.0 °F 38% 29.96 in 10.0 mi SE 5.8 mph - N/A   Clear
9:53 PM 55.0 °F - 36.0 °F 49% 29.95 in 10.0 mi SSE 4.6 mph - N/A   Clear
10:53 PM 57.9 °F - 34.0 °F 41% 29.94 in 10.0 mi SSE 6.9 mph - N/A   Clear
11:53 PM 61.0 °F - 32.0 °F 34% 29.92 in 10.0 mi SSE 9.2 mph - N/A   Clear
12:53 AM 62.1 °F - 32.0 °F 32% 29.92 in 10.0 mi SSE 9.2 mph - N/A   Clear